STARLINK-36993, 67994

Orbit data source: Space-Track

STARLINK-36993, 67994 is a payload satellite owned by SpaceX/Seattle (US) in LEO that was launched on Fri, 27 Feb 2026 UTC via an FALCON 9 launch vehicle from the Air Force Eastern Test Range (AFETR). Payload-class satellites include a variety of spacecraft equipped with specific instruments for various scientific and technological missions. These include communications satellites like Starlink; space stations such as the ISS; scientific satellites like the Hubble; Earth observation satellites from companies like Planet Labs, Umbra, and HawkEye 360; GPS; miniature CubeSats for education and research; and military/defense satellites.

Loading next visibility...
Identifier
67994, 2026-039J
Orbit
LEO
Country
Flag of USUS
Related business
Manufacturer
SpaceX/Seattle
Mission
Operational Commercial Communications
Bus & Motor
STARLINK V2MO, Unknown motor
Mass
575 kg wet, ~530 kg dry
Launch date (UTC)
2026-02-27 (2 months ago)
Launch vehicle
FALCON 9
Launch site
Air Force Eastern Test Range (AFETR)
Object type
Payload
Rocket body
Debris
Shape & HBR
Box + 2 Pan, 17.7 m
Radar Cross Section
36.964 m²

Expand to show TLE details & history
Last TLE update: 10 hours ago

TLE from 10 hours ago
0 STARLINK-36993
1 67994U 26039J   26119.36518552  .00023079  00000-0  84598-3 0  9997
2 67994  42.9985 122.7282 0001388 271.1961  88.8732 15.27564194  9453
Epoch: 2026-04-29T08:45Z
TLE epoch observation values (Epoch: 2026-04-29T08:45:52.028Z)
Latitude
-0.00001°
Longitude
133.93421°
Altitude
482.853 km
Speed
7.626 km/s
True Right ascension
08h 10m 54s
True Declination
0° 00' 00"
Sunlit
Object was in daylight at epoch
Visualization orbit readout
Latitude
Unknown
Longitude
Unknown
Altitude
Unknown
Speed
Unknown
Apparent Right ascension
Unknown
Apparent Declination
Unknown
Sunlit
N/A
Visualization observer readout
Local Sidereal Time
02:26:04
Azimuth
Unknown
Elevation
Unknown
Doppler factor
Unknown
Orbital elements
Apogee altitude
485.994 km
Perigee altitude
484.089 km
Semi-major axis
6,863.179 km
Eccentricity
0.00014
Inclination
42.9985°
RAAN
122.7282°
Arg. of periapsis
271.1961°
True anomaly
88.8891°
Mean anomaly
88.8732°
Eccentric anomaly
88.88115°
Mean motion
3.81729 °/min
Orbital period
94.31 mins
BSTAR
0.00084598
Loading maneuver chart data...
Computing Atmospheric mass density...
Loading historical data...
Loading historical data...
Loading historical data...
Loading historical data...
Loading historical data...
Loading historical data...
Loading historical data...

Documentation

Showing up to 5 results
|